Regional Weather Roundup
Issued by NWS

Home | Current Version | Previous Version | Text Only | Print | Product List | Glossary Off
Versions: 1 2 3 4 5 6 7 8 9 10 11 12 13 14 15 16 17 18 19 20 21 22 23 24 25 26 27 28 29 30 31 32 33 34 35 36 37 38 39 40 41 42 43 44 45 46 47 48 49 50

000
ASUS45 KTFX 190219
RWRMT
MONTANA HOURLY WEATHER ROUNDUP
NATIONAL WEATHER SERVICE GREAT FALLS MT
719 PM MST THU DEC 18 2014

NOTE: "FAIR" INDICATES FEW OR NO CLOUDS BELOW 12000 FEET WITH NO
SIGNIFICANT WEATHER AND/OR OBSTRUCTIONS TO VISIBILITY.

* THESE STATIONS ARE NOT UNDER NWS QUALITY CONTROL. THEY DO NOT
   REPORT WEATHER SUCH AS PRECIPITATION OR FOG.

MTZ001>007-043-190300-
WEST OF THE DIVIDE
CITY           SKY/WX    TMP DP  RH WIND       PRES   REMARKS
KALISPELL      FOG       32  30  92 CALM      29.98S
MISSOULA       CLOUDY    30  28  92 CALM      30.03S
BUTTE          CLOUDY    23  19  85 CALM      29.99F
MULLAN PASS    FOG       30  27  89 S7        29.91F VSB 3/4  WCI  23
* ESSEX        N/A       31  30  96 NW2        N/A
* EUREKA APT   MOCLDY    37  30  76 S9        29.96S WCI  30
* HAMILTON APT MOCLDY    34  27  76 SE2       30.00S
* LIBBY APT    MOCLDY    32  30  92 CALM      29.99S VSB 3
* LINCOLN      N/A       29  28  96 S2         N/A
* LOOKOUT PASS N/A       32  32 100 SE5        N/A   WCI  27
* POLSON       N/A       33  32  96 SE1        N/A
* RONAN APT    CLOUDY    32  30  92 N/A        N/A
* SEELEY LAKE  N/A       29  28  96 E1         N/A
* THOMP F APT  CLOUDY    24  22  92 E4         N/A
* YAAK HILL    N/A       35  32  89 E1         N/A
$$

MTZ008-052>055-190300-
SOUTHWEST MONTANA
CITY           SKY/WX    TMP DP  RH WIND       PRES   REMARKS
BOZEMAN        CLOUDY    28  23  81 CALM      30.01S
DILLON         CLOUDY    28  21  75 S8        30.01S WCI  20
* W YELLOWSTON MOCLDY    25  22  88 SW1G6      N/A
* THREE FORKS  MOCLDY    28  28 100 N/A        N/A
* BOULDER HILL N/A       30  15  54 SW8        N/A   WCI  22
* MONIDA PASS  N/A       22  22 100 SE14G19    N/A   WCI   9
* RAYNOLDS PAS N/A       22   8  55 S12        N/A   WCI  10
* WHITEHALL    N/A       32  22  67 SW7G13     N/A   WCI  25
* WISE RIVER   N/A       23  20  88 SE2        N/A
$$

MTZ009>010-012-014-046-048-049-054-190300-
EAST SLOPES AND CENTRAL MONTANA
CITY           SKY/WX    TMP DP  RH WIND       PRES   REMARKS
CUT BANK       PTCLDY    36  27  70 W20       29.86S WCI  25
GREAT FALLS    PTCLDY    34  27  76 SW16      29.91R WCI  24
HELENA         CLOUDY    28  23  81 CALM      30.00S
MALMSTROM AFB  MOCLDY    36  28  73 SW14      29.93S WCI  27
* CONRAD       PTCLDY    32  30  92 CALM       N/A
* DEARBORN     N/A       41  26  55 SE2G10     N/A
* EAST GLACIER N/A       34  24  67 W22G35     N/A   WCI  22
* MONARCH      N/A       34  18  52 SW9G14     N/A   WCI  27
* PENDROY      N/A       30  22  72 W4         N/A
* SWEET GRASS  N/A       36  29  76 SW13G18    N/A   WCI  27
* WHITE SULPH  N/A       33  21  61 SW4G16     N/A
$$

MTZ011-013-016-021-035-040-045-047-050-051-190300-
NORTH CENTRAL MONTANA
CITY           SKY/WX    TMP DP  RH WIND       PRES   REMARKS
HAVRE          CLEAR     27  23  85 NW3       29.89S
* N BAR RANCH  CLEAR     34  21  59 NW6G13    29.92S WCI  29
* CHINOOK      PTCLDY    19  18  96 CALM      29.91S VSB M1/4
* CHESTER      N/A       25  22  88 SW1        N/A
* DENTON       N/A       32  26  79 SW8        N/A   WCI  25
* JUDITH GAP   N/A       35  22  59 SW17       N/A   WCI  25
* LOMA         N/A       36  27  70 SW7        N/A   WCI  30
$$

MTZ017>020-022>027-061-062-190300-
NORTHEAST MONTANA
CITY           SKY/WX    TMP DP  RH WIND       PRES   REMARKS
GLASGOW        PTCLDY    23  19  85 CALM      29.91R
GLENDIVE       CLOUDY    28  25  89 SW9       29.93S WCI  19
JORDAN         CLOUDY    32  27  82 W6        29.91S WCI  26
SIDNEY         CLEAR     19  18  96 CALM      29.95S
WOLF POINT     PTCLDY    19  18  96 CALM      29.93S
* BEAVER HILL  N/A       31  25  78 S11        N/A   WCI  22
* CIRCLE       N/A       30  27  89 N/A        N/A
* LINDSAY DVD  N/A       34  26  73 W12        N/A   WCI  25
* NAVAJO       N/A       25  24  96 W3         N/A
* PLENTYWOOD A CLEAR     27  27 100 SW6       29.91S WCI  20
* POPLAR APT   CLEAR     19  19 100 N3        29.92F VSB M1/4
* SACO         N/A       20  19  96 N/A        N/A
$$

MTZ028>042-056>058-190300-
SOUTHCENTRAL AND SOUTHEAST MONTANA
CITY           SKY/WX    TMP DP  RH WIND       PRES   REMARKS
BAKER          CLEAR     30  25  82 SW6       29.94S WCI  24
BILLINGS       PTCLDY    34  19  54 SW20      29.97S WCI  23
LIVINGSTON     CLOUDY    39  21  48 W18G35    29.97F WCI  30
MILES CITY     PTCLDY    34  25  70 SW3       29.95R
* FORSYTH APT  MOCLDY    36  25  64 CALM      29.95S
* LAUREL APT   PTCLDY    30  12  47 SW5        N/A   WCI  25
* ROUNDUP APT  PTCLDY    39  19  45 N/A        N/A
* ALZADA       N/A       28  23  81 NW1        N/A
* HYSHAM       N/A       31  21  66 W3         N/A
* LAME DEER    N/A       34  18  52 W10        N/A   WCI  26
* REED POINT   N/A       35  22  59 SE4        N/A
* ROSCOE HILL  N/A       36   6  28 SW8G15     N/A   WCI  30
$$

REGIONAL REPORTS...DAKOTAS
CITY           SKY/WX    TMP DP  RH WIND       PRES   REMARKS
WILLISTON      CLOUDY    28  27  96 S6        29.94F WCI  21
DICKINSON      FOG       21  18  88 S8        29.92F WCI  11
BEACH          CLEAR     25  25 100 SW6       29.93S WCI  18
CROSBY         CLOUDY    27  27 100 SW6       29.94F WCI  20
TIOGA          FOG       25  25 100 S5        29.96F WCI  19
WATFORD CITY   FOG       28  28 100 S6        29.92F WCI  21
BISMARCK       FOG       27  25  92 S7        30.03S WCI  19
GRAND FORKS    CLOUDY    19  16  88 S13       30.15F WCI   6
FARGO          CLOUDY    21  16  81 S14       30.17F WCI   8
BUFFALO SD     PTCLDY    30  25  82 S8        29.90S WCI  22
RAPID CITY     PTCLDY    27  21  78 CALM      30.00S
$$

REGIONAL REPORTS...WYOMING/IDAHO/WASHINGTON
CITY           SKY/WX    TMP DP  RH WIND       PRES   REMARKS
GILLETTE       CLEAR     28  18  66 SW10      29.99R WCI  19
SHERIDAN       CLEAR     25  14  63 S3        29.98R
CODY           PTCLDY    25  16  69 NE5       30.00S WCI  19
YELLOWSTONE LA MOCLDY    23  16  74 CALM      30.08S
SALMON         CLOUDY    27  21  78 CALM      30.08S
MULLAN PASS    FOG       30  27  89 S7        29.91S VSB 3/4  WCI  23
SAND POINT     FOG       34  34 100 CALM      29.98F
SPOKANE        FOG       37  37 100 NE3       29.95S VSB 1
$$

REGIONAL REPORTS...ALBERTA
CITY           SKY/WX    TMP DP  RH WIND       PRES   REMARKS
CALGARY        PTCLDY    28  21  75 CALM      29.78R
LETHBRIDGE     PTCLDY    32  28  85 SW15      29.84R WCI  22
MEDICINE HAT   N/A       18  18 100 CALM      29.86F
EDMONTON       N/A       16  12  84 SE3       29.82S
WATERTON GATE  N/A       37  25  62 SW15G24    N/A   WCI  28
CARDSTON       N/A       30  27  89 SW8        N/A   WCI  22
MILK RIVER     N/A       32  28  85 NW3        N/A
$$

REGIONAL REPORTS...SASKATCHEWAN
CITY           SKY/WX    TMP DP  RH WIND       PRES   REMARKS
SWIFT CURRENT  CLOUDY    23  21  92 SW8       29.84S WCI  14
REGINA         FOG       25  25 100 SW7       29.90S VSB 3    WCI  17
VAL MARIE      N/A       23  21  92 CALM       N/A
ASSINIBOIA     N/A       19  19 100 SW3        N/A
CORONACH       N/A       25  23  92 W5         N/A   WCI  19

$$



USA.gov is the U.S. government's official web portal to all federal, state and local government web resources and services.